Regional Weather Roundup
Issued by NWS Northern Indiana

Home | Current Version | Previous Version | Text Only | Print | Product List | Glossary On
Versions: 1 2 3 4 5 6 7 8 9 10 11 12 13 14 15 16 17 18 19 20 21 22 23 24 25 26 27 28 29 30 31 32 33 34 35 36 37 38 39 40 41 42 43 44 45 46 47 48 49 50
000
ASUS43 KIWX 302210
RWRIWX

KIWX WEATHER ROUNDUP
NATIONAL WEATHER SERVICE NORTHERN INDIANA
600 PM EDT TUE AUG 30 2016

NOTE: "FAIR" INDICATES FEW OR NO CLOUDS BELOW 12,000 FEET WITH NO
SIGNIFICANT WEATHER AND/OR OBSTRUCTIONS TO VISIBILITY.

* THESE STATIONS ARE NOT UNDER NWS QUALITY CONTROL. THEY ALSO MAY NOT
  REPORT WEATHER SUCH AS PRECIPITATION OR FOG.

INZ001>027-302300-
NORTHERN INDIANA

CITY           SKY/WX    TMP DP  RH WIND       PRES   REMARKS
GARY*          PTSUNNY   86  68  54 W8        30.05F
VALPARAISO     PTSUNNY   80  71  74 W9        30.06F
MICHIGAN CITY* PTSUNNY   81  75  83 MISG      30.05F
LAPORTE*       MOSUNNY   84  73  70 NW8       30.05F
KNOX*          MOSUNNY   81  46  30 W7        30.05F
SOUTH BEND     CLOUDY    81  74  79 NW9       30.05F
ELKHART*       PTSUNNY  N/A N/A N/A W9        30.06S
GOSHEN         PTSUNNY   82  73  74 VRB5      30.05F
MONTICELLO*    MOSUNNY   82  68  61 NW7       30.05R
LOGANSPORT*    LGT RAIN  73  70  88 W7        30.06S
ROCHESTER*     CLOUDY    73  72  94 SE12G22   30.06F VSB 1
WARSAW*        CLOUDY    81  75  83 W10       30.06R
ANGOLA*        PTSUNNY   73  66  78 CALM      30.08S
FORT WAYNE     TSTM      71  69  93 CALM      30.07F
HUNTINGTON*    CLOUDY    71  70  96 NE7       30.05F
PERU/GRISSOM   MOSUNNY   78  74  85 NW18      30.00F THUNDER
MARION*        PTSUNNY   84  70  63 SW5       30.04F

$$
INZ028>050-302300-
CENTRAL INDIANA

CITY           SKY/WX    TMP DP  RH WIND       PRES   REMARKS
LAFAYETTE      LGT RAIN  81  74  79 NW10      30.03F
KOKOMO*        PTSUNNY   81  75  83 S7        30.04S
MUNCIE*        PTSUNNY   87  70  56 S8        30.04F
INDIANAPOLIS   PTSUNNY   87  70  56 SW12      30.04F

$$
MIZ043>046-050>051-056>058-064>065-071>073-077>080-302300-
SOUTHWEST LOWER MICHIGAN

CITY           SKY/WX    TMP DP  RH WIND       PRES   REMARKS
BATTLE CREEK   MOSUNNY   79  70  74 W3        30.07F
BENTON HARBOR  CLOUDY    79  70  74 W7        30.05F
COLDWATER*     PTSUNNY   81  70  70 CALM      30.06F
HILLSDALE*     CLOUDY    77  69  77 S6        30.07F
HOLLAND        CLOUDY    76  68  76 W5        30.06F
GRAND RAPIDS   CLOUDY    77  68  73 CALM      30.06S THUNDER
KALAMAZOO      MOSUNNY   80  69  69 SW3       30.06F
STURGIS*       MOSUNNY   81  70  68 CALM      30.05F
THREE RIVERS*  PTSUNNY   81  73  76 CALM      30.06F

$$
OHZ001>008-015>018-024>025-302300-
NORTHWEST OHIO

CITY           SKY/WX    TMP DP  RH WIND       PRES   REMARKS
WAUSEON*       CLOUDY    79  73  83 CALM      30.06F
DEFIANCE       LGT RAIN  81  71  71 NE6       30.06F
FINDLAY        MOSUNNY   83  66  56 S5        30.05F
TOLEDO EXPRESS CLOUDY    78  70  76 CALM      30.06F
TOLEDO METCALF PTSUNNY   83  60  45 S5        30.06F
LIMA           CLOUDY    82  75  79 CALM      30.06F

$$
AND FOR LAKE MICHIGAN COASTAL AND OPEN LAKE BUOY OBSERVATIONS

STATION/POSITION TEMP    WIND        PRES    VSBY  WAVE
                 AIR SEA DIR/SP/G                  HT/PER
                 (F)     (DEG/KT/KT) (MB)    (MI)  (FT/S)
CALUMET HARBOR    84     240/  4/ 13 1017.5F
MICHIGAN CITY     78     300/  5/  6   N/A
BURNS HARBOR                         1018.3F
SAINT JOSEPH      80     260/  4/  7 1019.3F
SOUTH LAKE BUOY   75 76  250/ 10/ 12 1017.0F         1/ 3
4 MI NW BRIDGMAN  76 76  250/  6/  6 1017.8F         1
MICHIGAN CITY     77 73  350/  2/  4   N/A           0

$$
&&



USA.gov is the U.S. government's official web portal to all federal, state and local government web resources and services.